• Em Portugal
  • Lista de países
  • Para 7 dias
  • Temperatura da água
  • Mapas de satélite
  • Mapa do tempo
  • Widgets de tempo
  • user-avatar
    Iniciar Sessão

    Previsão horária em Barisal

    Hoje, 23 Setembro, Domingo

    Tempo Temperatura Precipitação Vento Pressão Humidade
    00:00 +29°C° 0 mm 2 m/s 758 mmHg 83%
    01:00 +29°C° 0 mm 2 m/s 758 mmHg 84%
    02:00 +28°C° 0 mm 2 m/s 758 mmHg 86%
    03:00 +28°C° 0 mm 2 m/s 758 mmHg 87%
    04:00 +28°C° 0 mm 2 m/s 758 mmHg 88%
    05:00 +28°C° 0 mm 2 m/s 758 mmHg 89%
    06:00 +28°C° 0 mm 2 m/s 758 mmHg 89%
    07:00 +29°C° 0 mm 2 m/s 759 mmHg 83%
    08:00 +31°C° 0 mm 2 m/s 759 mmHg 77%
    09:00 +33°C° 0 mm 3 m/s 759 mmHg 70%
    10:00 +34°C° 0 mm 2 m/s 759 mmHg 66%
    11:00 +35°C° 0 mm 2 m/s 758 mmHg 61%
    12:00 +35°C° 0 mm 2 m/s 759 mmHg 59%
    13:00 +36°C° 0 mm 2 m/s 758 mmHg 58%
    14:00 +36°C° 0 mm 2 m/s 757 mmHg 56%
    15:00 +36°C° 0 mm 2 m/s 756 mmHg 55%
    16:00 +35°C° 0 mm 2 m/s 756 mmHg 58%
    17:00 +34°C° 0 mm 2 m/s 756 mmHg 61%
    18:00 +34°C° 0 mm 2 m/s 756 mmHg 64%
    19:00 +32°C° 0 mm 2 m/s 756 mmHg 67%
    20:00 +31°C° 0 mm 2 m/s 757 mmHg 69%
    21:00 +31°C° 0 mm 2 m/s 757 mmHg 72%
    22:00 +30°C° 0 mm 3 m/s 757 mmHg 75%
    23:00 +30°C° 0 mm 3 m/s 757 mmHg 78%

    Amanhã, 24 Setembro, Segunda-feira

    Tempo Temperatura Precipitação Vento Pressão Humidade
    00:00 +29°C° 0 mm 3 m/s 757 mmHg 81%
    01:00 +29°C° 0 mm 3 m/s 757 mmHg 83%
    02:00 +29°C° 0 mm 3 m/s 757 mmHg 85%
    03:00 +28°C° 0 mm 3 m/s 756 mmHg 87%
    04:00 +28°C° 0 mm 3 m/s 756 mmHg 87%
    05:00 +28°C° 0 mm 3 m/s 757 mmHg 88%
    06:00 +28°C° 0 mm 3 m/s 757 mmHg 88%
    07:00 +29°C° 0 mm 3 m/s 757 mmHg 81%
    08:00 +31°C° 0 mm 3 m/s 757 mmHg 75%
    09:00 +34°C° 0 mm 3 m/s 758 mmHg 68%
    10:00 +35°C° 0 mm 2 m/s 757 mmHg 63%
    11:00 +36°C° 0 mm 2 m/s 757 mmHg 58%
    12:00 +37°C° 0 mm 2 m/s 756 mmHg 53%
    13:00 +37°C° 0 mm 2 m/s 756 mmHg 54%
    14:00 +36°C° 0 mm 2 m/s 755 mmHg 55%
    15:00 +36°C° 0 mm 2 m/s 754 mmHg 55%
    16:00 +35°C° 0.1 mm 2 m/s 754 mmHg 59%
    17:00 +34°C° 0.1 mm 3 m/s 754 mmHg 63%
    18:00 +33°C° 0.1 mm 3 m/s 754 mmHg 67%
    19:00 +33°C° 0 mm 3 m/s 754 mmHg 71%
    20:00 +31°C° 0 mm 3 m/s 755 mmHg 75%
    21:00 +30°C° 0 mm 4 m/s 755 mmHg 79%
    22:00 +30°C° 0 mm 4 m/s 755 mmHg 80%
    23:00 +30°C° 0 mm 4 m/s 755 mmHg 82%

    Depois de amanhã, 25 Setembro, Terça-feira

    Tempo Temperatura Precipitação Vento Pressão Humidade
    00:00 +30°C° 0 mm 4 m/s 755 mmHg 83%
    01:00 +29°C° 0.1 mm 4 m/s 755 mmHg 84%
    02:00 +29°C° 0.1 mm 3 m/s 755 mmHg 84%
    03:00 +29°C° 0.1 mm 3 m/s 754 mmHg 85%
    04:00 +29°C° 0 mm 3 m/s 755 mmHg 85%
    05:00 +29°C° 0 mm 3 m/s 755 mmHg 86%
    06:00 +29°C° 0 mm 2 m/s 755 mmHg 86%
    07:00 +30°C° 0 mm 2 m/s 755 mmHg 79%
    08:00 +33°C° 0 mm 3 m/s 756 mmHg 73%
    09:00 +34°C° 0 mm 3 m/s 756 mmHg 67%
    10:00 +35°C° 0 mm 3 m/s 756 mmHg 62%
    11:00 +36°C° 0 mm 3 m/s 756 mmHg 58%
    12:00 +37°C° 0 mm 3 m/s 755 mmHg 54%
    13:00 +36°C° 0.9 mm 3 m/s 754 mmHg 57%
    14:00 +36°C° 0.9 mm 3 m/s 754 mmHg 59%
    15:00 +36°C° 0.9 mm 4 m/s 753 mmHg 62%
    16:00 +34°C° 0.8 mm 3 m/s 753 mmHg 67%
    17:00 +33°C° 0.8 mm 3 m/s 753 mmHg 72%
    18:00 +31°C° 0.8 mm 2 m/s 753 mmHg 77%
    19:00 +31°C° 0.1 mm 2 m/s 753 mmHg 79%
    20:00 +31°C° 0.1 mm 2 m/s 754 mmHg 80%
    21:00 +30°C° 0.1 mm 2 m/s 754 mmHg 81%
    22:00 +30°C° 0.2 mm 2 m/s 754 mmHg 83%
    23:00 +30°C° 0.2 mm 3 m/s 754 mmHg 84%

    26 Setembro, Quarta-feira

    Tempo Temperatura Precipitação Vento Pressão Humidade
    00:00 +30°C° 0.2 mm 3 m/s 754 mmHg 86%
    01:00 +29°C° 0.2 mm 3 m/s 754 mmHg 86%
    02:00 +29°C° 0.2 mm 2 m/s 753 mmHg 86%
    03:00 +29°C° 0.2 mm 2 m/s 753 mmHg 86%
    04:00 +29°C° 0.7 mm 2 m/s 753 mmHg 86%
    05:00 +29°C° 0.7 mm 2 m/s 754 mmHg 86%
    06:00 +29°C° 0.7 mm 2 m/s 754 mmHg 87%
    07:00 +30°C° 0.1 mm 2 m/s 754 mmHg 81%
    08:00 +32°C° 0.1 mm 2 m/s 755 mmHg 75%
    09:00 +34°C° 0.1 mm 2 m/s 755 mmHg 69%
    10:00 +35°C° 0.3 mm 3 m/s 755 mmHg 66%
    11:00 +36°C° 0.3 mm 3 m/s 755 mmHg 62%
    12:00 +36°C° 0.3 mm 3 m/s 754 mmHg 58%
    13:00 +36°C° 1.1 mm 3 m/s 754 mmHg 59%
    14:00 +36°C° 1.1 mm 3 m/s 753 mmHg 60%
    15:00 +36°C° 1.1 mm 3 m/s 752 mmHg 61%
    16:00 +35°C° 0.8 mm 3 m/s 752 mmHg 66%
    17:00 +34°C° 0.8 mm 3 m/s 753 mmHg 70%
    18:00 +32°C° 0.8 mm 2 m/s 753 mmHg 75%
    19:00 +31°C° 0 mm 2 m/s 753 mmHg 77%
    20:00 +31°C° 0 mm 3 m/s 754 mmHg 80%
    21:00 +30°C° 0 mm 3 m/s 754 mmHg 82%
    22:00 +30°C° 0.7 mm 3 m/s 754 mmHg 83%
    23:00 +30°C° 0.7 mm 3 m/s 754 mmHg 85%

    27 Setembro, Quinta-feira

    Tempo Temperatura Precipitação Vento Pressão Humidade
    00:00 +29°C° 0.7 mm 3 m/s 754 mmHg 86%
    01:00 +29°C° 0.5 mm 3 m/s 754 mmHg 87%
    02:00 +29°C° 0.5 mm 3 m/s 753 mmHg 87%
    03:00 +29°C° 0.5 mm 3 m/s 753 mmHg 87%
    04:00 +29°C° 0.9 mm 2 m/s 754 mmHg 87%
    05:00 +29°C° 0.9 mm 2 m/s 754 mmHg 87%
    06:00 +29°C° 0.9 mm 2 m/s 754 mmHg 87%
    07:00 +30°C° 0.1 mm 2 m/s 755 mmHg 80%
    08:00 +32°C° 0.1 mm 2 m/s 755 mmHg 74%
    09:00 +34°C° 0.1 mm 2 m/s 756 mmHg 68%
    10:00 +35°C° 0.3 mm 2 m/s 755 mmHg 64%
    11:00 +36°C° 0.3 mm 2 m/s 755 mmHg 60%
    12:00 +37°C° 0.3 mm 2 m/s 755 mmHg 56%
    13:00 +36°C° 1.2 mm 2 m/s 754 mmHg 57%
    14:00 +36°C° 1.2 mm 2 m/s 753 mmHg 59%
    15:00 +36°C° 1.2 mm 2 m/s 753 mmHg 60%
    16:00 +35°C° 1 mm 2 m/s 753 mmHg 66%
    17:00 +34°C° 1 mm 2 m/s 753 mmHg 72%
    18:00 +31°C° 1 mm 2 m/s 754 mmHg 77%
    19:00 +31°C° 0 mm 2 m/s 754 mmHg 80%
    20:00 +30°C° 0 mm 3 m/s 755 mmHg 82%
    21:00 +30°C° 0 mm 3 m/s 755 mmHg 84%
    22:00 +30°C° 0 mm 3 m/s 755 mmHg 85%
    23:00 +30°C° 0 mm 3 m/s 755 mmHg 87%

    28 Setembro, Sexta-feira

    Tempo Temperatura Precipitação Vento Pressão Humidade
    00:00 +29°C° 0 mm 3 m/s 755 mmHg 88%
    01:00 +29°C° 0.9 mm 3 m/s 754 mmHg 88%
    02:00 +29°C° 0.9 mm 2 m/s 754 mmHg 88%
    03:00 +29°C° 0.9 mm 2 m/s 754 mmHg 88%
    04:00 +29°C° 0.6 mm 2 m/s 754 mmHg 88%
    05:00 +29°C° 0.6 mm 2 m/s 755 mmHg 87%
    06:00 +28°C° 0.6 mm 2 m/s 755 mmHg 87%
    07:00 +30°C° 0 mm 2 m/s 755 mmHg 81%
    08:00 +31°C° 0 mm 2 m/s 756 mmHg 75%
    09:00 +33°C° 0 mm 1 m/s 756 mmHg 68%
    10:00 +34°C° 0 mm 1 m/s 756 mmHg 64%
    11:00 +35°C° 0 mm 1 m/s 756 mmHg 59%
    12:00 +36°C° 0 mm 1 m/s 755 mmHg 54%
    13:00 +37°C° 0.2 mm 2 m/s 755 mmHg 55%
    14:00 +37°C° 0.2 mm 2 m/s 754 mmHg 56%
    15:00 +37°C° 0.2 mm 2 m/s 753 mmHg 57%
    16:00 +35°C° 0.8 mm 2 m/s 753 mmHg 63%
    17:00 +34°C° 0.8 mm 2 m/s 754 mmHg 70%
    18:00 +33°C° 0.8 mm 3 m/s 754 mmHg 76%
    19:00 +31°C° 0 mm 3 m/s 754 mmHg 79%
    20:00 +31°C° 0 mm 3 m/s 755 mmHg 82%
    21:00 +30°C° 0 mm 3 m/s 755 mmHg 84%
    22:00 +30°C° 0 mm 3 m/s 755 mmHg 85%
    23:00 +30°C° 0 mm 3 m/s 755 mmHg 86%
    Mostrar mais